Time,TemperatureF,DewpointF,PressureIn,WindDirection,WindDirectionDegrees,WindSpeedMPH,WindSpeedGustMPH,Humidity,HourlyPrecipIn,Conditions,Clouds,dailyrainin,SolarRadiationWatts/m^2,SoftwareType,DateUTC
2013-10-19 00:01:00,48.7,43.0,29.90,SSE,148,0.0,-999.0,81,-99.99,,,0.00,0,weatherlink.com 1.10,2013-10-19 04:01:00,
2013-10-19 00:16:00,48.1,43.0,29.89,SSE,148,0.0,-999.0,82,-99.99,,,0.00,0,weatherlink.com 1.10,2013-10-19 04:16:00,
2013-10-19 00:31:00,47.8,43.0,29.89,SSE,148,0.0,-999.0,84,-99.99,,,0.00,0,weatherlink.com 1.10,2013-10-19 04:31:00,
2013-10-19 00:46:00,47.9,43.0,29.89,SSE,148,0.0,-999.0,84,-99.99,,,0.00,0,weatherlink.com 1.10,2013-10-19 04:46:00,
2013-10-19 01:01:00,48.3,44.0,29.89,SSE,148,0.0,-999.0,85,-99.99,,,0.00,0,weatherlink.com 1.10,2013-10-19 05:01:00,
2013-10-19 01:16:00,48.8,44.0,29.89,SSE,148,0.0,-999.0,84,-99.99,,,0.00,0,weatherlink.com 1.10,2013-10-19 05:16:00,
2013-10-19 01:31:00,49.6,44.0,29.89,SSE,148,4.0,-999.0,82,-99.99,,,0.00,0,weatherlink.com 1.10,2013-10-19 05:31:00,
2013-10-19 01:46:00,51.0,44.0,29.88,SSE,148,5.0,-999.0,76,-99.99,,,0.00,0,weatherlink.com 1.10,2013-10-19 05:46:00,
2013-10-19 02:01:00,51.8,43.0,29.88,SE,140,5.0,-999.0,73,-99.99,,,0.00,0,weatherlink.com 1.10,2013-10-19 06:01:00,
2013-10-19 02:16:00,52.3,43.0,29.88,SE,134,5.0,-999.0,71,-99.99,,,0.00,0,weatherlink.com 1.10,2013-10-19 06:16:00,
2013-10-19 02:31:00,52.7,44.0,29.88,SE,137,2.0,-999.0,71,-99.99,,,0.00,0,weatherlink.com 1.10,2013-10-19 06:31:00,
2013-10-19 02:46:00,52.8,43.0,29.87,SE,128,4.0,-999.0,70,-99.99,,,0.00,0,weatherlink.com 1.10,2013-10-19 06:46:00,
2013-10-19 03:01:00,53.1,44.0,29.87,SE,130,2.0,-999.0,71,-99.99,,,0.00,0,weatherlink.com 1.10,2013-10-19 07:01:00,
2013-10-19 03:16:00,52.8,44.0,29.87,SE,131,4.0,-999.0,71,-99.99,,,0.00,0,weatherlink.com 1.10,2013-10-19 07:16:00,
2013-10-19 03:31:00,52.8,44.0,29.87,SE,131,4.0,-999.0,72,-99.99,,,0.00,0,weatherlink.com 1.10,2013-10-19 07:31:00,
2013-10-19 03:46:00,52.6,44.0,29.87,SE,131,3.0,-999.0,72,-99.99,,,0.00,0,weatherlink.com 1.10,2013-10-19 07:46:00,
2013-10-19 04:01:00,52.9,44.0,29.86,SE,131,5.0,-999.0,71,-99.99,,,0.00,0,weatherlink.com 1.10,2013-10-19 08:01:00,
2013-10-19 04:16:00,53.0,44.0,29.86,SE,131,3.0,-999.0,72,-99.99,,,0.00,0,weatherlink.com 1.10,2013-10-19 08:16:00,
2013-10-19 04:31:00,52.7,44.0,29.86,SE,131,1.0,-999.0,73,-99.99,,,0.00,0,weatherlink.com 1.10,2013-10-19 08:31:00,
2013-10-19 04:46:00,52.3,45.0,29.86,SE,131,1.0,-999.0,75,-99.99,,,0.00,0,weatherlink.com 1.10,2013-10-19 08:46:00,
2013-10-19 05:01:00,52.8,44.0,29.86,SE,131,0.0,-999.0,73,-99.99,,,0.00,0,weatherlink.com 1.10,2013-10-19 09:01:00,
2013-10-19 05:16:00,53.2,44.0,29.86,ESE,120,3.0,-999.0,72,-99.99,,,0.00,0,weatherlink.com 1.10,2013-10-19 09:16:00,
2013-10-19 05:31:00,54.4,44.0,29.85,ESE,122,1.0,-999.0,69,-99.99,,,0.00,0,weatherlink.com 1.10,2013-10-19 09:31:00,
2013-10-19 05:46:00,54.5,44.0,29.85,SE,126,1.0,-999.0,68,-99.99,,,0.00,0,weatherlink.com 1.10,2013-10-19 09:46:00,
2013-10-19 06:01:00,54.5,44.0,29.84,SSE,159,4.0,-999.0,67,-99.99,,,0.00,0,weatherlink.com 1.10,2013-10-19 10:01:00,
2013-10-19 06:16:00,53.3,44.0,29.84,East,86,6.0,-999.0,72,-99.99,,,0.00,0,weatherlink.com 1.10,2013-10-19 10:16:00,
2013-10-19 06:31:00,51.6,44.0,29.84,ESE,120,2.0,-999.0,76,-99.99,,,0.00,0,weatherlink.com 1.10,2013-10-19 10:31:00,
2013-10-19 06:46:00,51.9,44.0,29.84,SE,144,4.0,-999.0,74,-99.99,,,0.00,0,weatherlink.com 1.10,2013-10-19 10:46:00,
2013-10-19 07:01:00,51.5,44.0,29.84,SE,130,6.0,-999.0,75,-99.99,,,0.00,0,weatherlink.com 1.10,2013-10-19 11:01:00,
2013-10-19 07:16:00,51.2,44.0,29.84,SE,130,5.0,-999.0,75,-99.99,,,0.00,0,weatherlink.com 1.10,2013-10-19 11:16:00,
2013-10-19 07:31:00,-999.0,-99.9,29.84,North,-999,-999.0,-999.0,-999,-99.99,,,0.00,,weatherlink.com 1.10,2013-10-19 11:31:00,
2013-10-19 07:47:00,-999.0,-99.9,29.84,North,-999,-999.0,-999.0,-999,-99.99,,,0.00,,weatherlink.com 1.10,2013-10-19 11:47:00,
2013-10-19 08:02:00,-999.0,-99.9,29.84,North,-999,-999.0,-999.0,-999,-99.99,,,0.00,,weatherlink.com 1.10,2013-10-19 12:02:00,
2013-10-19 08:17:00,-999.0,-99.9,29.83,North,-999,-999.0,-999.0,-999,-99.99,,,0.00,,weatherlink.com 1.10,2013-10-19 12:17:00,
2013-10-19 08:32:00,-999.0,-99.9,29.84,North,-999,-999.0,-999.0,-999,-99.99,,,0.00,,weatherlink.com 1.10,2013-10-19 12:32:00,
2013-10-19 08:47:00,-999.0,-99.9,29.84,North,-999,-999.0,-999.0,-999,-99.99,,,0.00,,weatherlink.com 1.10,2013-10-19 12:47:00,
2013-10-19 09:02:00,-999.0,-99.9,29.84,North,-999,-999.0,-999.0,-999,-99.99,,,0.00,,weatherlink.com 1.10,2013-10-19 13:02:00,
2013-10-19 09:17:00,-999.0,-99.9,29.83,North,-999,-999.0,-999.0,-999,-99.99,,,0.00,,weatherlink.com 1.10,2013-10-19 13:17:00,
2013-10-19 09:32:00,-999.0,-99.9,29.84,North,-999,-999.0,-999.0,-999,-99.99,,,0.00,,weatherlink.com 1.10,2013-10-19 13:32:00,
2013-10-19 09:47:00,56.0,46.0,29.84,ESE,109,9.0,-999.0,68,-99.99,,,0.00,329,weatherlink.com 1.10,2013-10-19 13:47:00,
2013-10-19 10:02:00,55.5,45.0,29.83,SSE,150,5.0,-999.0,69,-99.99,,,0.00,200,weatherlink.com 1.10,2013-10-19 14:02:00,
2013-10-19 10:17:00,56.3,46.0,29.82,SE,129,6.0,-999.0,68,-99.99,,,0.00,179,weatherlink.com 1.10,2013-10-19 14:17:00,
2013-10-19 10:32:00,57.3,47.0,29.81,ESE,109,5.0,-999.0,68,-99.99,,,0.00,329,weatherlink.com 1.10,2013-10-19 14:32:00,
2013-10-19 10:47:00,59.1,47.0,29.81,SE,127,5.0,-999.0,64,-99.99,,,0.00,193,weatherlink.com 1.10,2013-10-19 14:47:00,
2013-10-19 11:02:00,59.8,47.0,29.81,ESE,121,10.0,-999.0,63,-99.99,,,0.00,429,weatherlink.com 1.10,2013-10-19 15:02:00,
2013-10-19 11:17:00,60.4,48.0,29.80,SE,128,6.0,-999.0,63,-99.99,,,0.00,401,weatherlink.com 1.10,2013-10-19 15:17:00,
2013-10-19 11:32:00,61.3,47.0,29.79,SSE,157,7.0,-999.0,59,-99.99,,,0.00,566,weatherlink.com 1.10,2013-10-19 15:32:00,
2013-10-19 11:47:00,61.2,47.0,29.80,East,90,8.0,-999.0,61,-99.99,,,0.00,318,weatherlink.com 1.10,2013-10-19 15:47:00,
2013-10-19 12:03:00,61.2,48.0,29.78,SE,133,10.0,-999.0,62,-99.99,,,0.00,429,weatherlink.com 1.10,2013-10-19 16:03:00,
2013-10-19 12:18:00,61.3,48.0,29.79,SE,126,9.0,-999.0,62,-99.99,,,0.00,366,weatherlink.com 1.10,2013-10-19 16:18:00,
2013-10-19 12:33:00,61.2,47.0,29.76,SSE,151,13.0,-999.0,60,-99.99,,,0.00,149,weatherlink.com 1.10,2013-10-19 16:33:00,
2013-10-19 12:48:00,61.3,46.0,29.75,SE,129,12.0,-999.0,57,-99.99,,,0.00,192,weatherlink.com 1.10,2013-10-19 16:48:00,
2013-10-19 13:03:00,61.4,44.0,29.74,East,88,9.0,-999.0,54,-99.99,,,0.00,336,weatherlink.com 1.10,2013-10-19 17:03:00,
2013-10-19 13:18:00,61.7,44.0,29.74,ESE,121,9.0,-999.0,53,-99.99,,,0.00,332,weatherlink.com 1.10,2013-10-19 17:18:00,
2013-10-19 13:33:00,61.9,44.0,29.73,ESE,111,12.0,-999.0,52,-99.99,,,0.00,232,weatherlink.com 1.10,2013-10-19 17:33:00,
2013-10-19 13:48:00,61.5,43.0,29.74,ESE,111,10.0,-999.0,51,-99.99,,,0.00,141,weatherlink.com 1.10,2013-10-19 17:48:00,
2013-10-19 14:03:00,60.9,43.0,29.73,SSE,155,8.0,-999.0,53,-99.99,,,0.00,190,weatherlink.com 1.10,2013-10-19 18:03:00,
2013-10-19 14:18:00,61.0,44.0,29.72,East,93,8.0,-999.0,54,-99.99,,,0.00,165,weatherlink.com 1.10,2013-10-19 18:18:00,
2013-10-19 14:33:00,60.8,44.0,29.71,East,100,8.0,-999.0,54,-99.99,,,0.00,144,weatherlink.com 1.10,2013-10-19 18:33:00,
2013-10-19 14:48:00,60.9,44.0,29.70,SSE,165,4.0,-999.0,54,-99.99,,,0.00,318,weatherlink.com 1.10,2013-10-19 18:48:00,
2013-10-19 15:03:00,61.6,45.0,29.69,ESE,109,7.0,-999.0,54,-99.99,,,0.00,290,weatherlink.com 1.10,2013-10-19 19:03:00,
2013-10-19 15:18:00,61.6,45.0,29.68,SE,126,7.0,-999.0,54,-99.99,,,0.00,114,weatherlink.com 1.10,2013-10-19 19:18:00,
2013-10-19 15:33:00,61.3,45.0,29.67,ESE,114,5.0,-999.0,56,-99.99,,,0.00,141,weatherlink.com 1.10,2013-10-19 19:33:00,
2013-10-19 15:48:00,61.2,45.0,29.66,East,100,5.0,-999.0,56,-99.99,,,0.00,146,weatherlink.com 1.10,2013-10-19 19:48:00,
2013-10-19 16:03:00,61.5,45.0,29.65,SE,136,10.0,-999.0,56,-99.99,,,0.00,274,weatherlink.com 1.10,2013-10-19 20:03:00,
2013-10-19 16:18:00,61.4,46.0,29.65,SE,138,10.0,-999.0,57,-99.99,,,0.00,207,weatherlink.com 1.10,2013-10-19 20:18:00,
2013-10-19 16:33:00,61.4,46.0,29.64,SE,138,16.0,-999.0,57,-99.99,,,0.00,160,weatherlink.com 1.10,2013-10-19 20:33:00,
2013-10-19 16:48:00,60.6,46.0,29.64,ESE,118,9.0,-999.0,59,-99.99,,,0.00,72,weatherlink.com 1.10,2013-10-19 20:48:00,
2013-10-19 17:03:00,60.4,46.0,29.63,SE,142,13.0,-999.0,60,-99.99,,,0.00,72,weatherlink.com 1.10,2013-10-19 21:03:00,
2013-10-19 17:18:00,60.0,46.0,29.63,ESE,117,15.0,-999.0,60,-99.99,,,0.00,37,weatherlink.com 1.10,2013-10-19 21:18:00,
2013-10-19 17:33:00,59.5,46.0,29.62,ESE,105,14.0,-999.0,62,-99.99,,,0.00,51,weatherlink.com 1.10,2013-10-19 21:33:00,
2013-10-19 17:48:00,58.4,48.0,29.62,SE,132,19.0,-999.0,69,-99.99,,,0.00,11,weatherlink.com 1.10,2013-10-19 21:48:00,
2013-10-19 18:03:00,57.2,49.0,29.63,SSE,157,13.0,-999.0,75,-99.99,,,0.00,0,weatherlink.com 1.10,2013-10-19 22:03:00,
2013-10-19 18:18:00,54.8,50.0,29.64,SSE,152,8.0,-999.0,83,-99.99,,,0.00,0,weatherlink.com 1.10,2013-10-19 22:18:00,
2013-10-19 18:33:00,54.1,49.0,29.64,SE,142,5.0,-999.0,83,-99.99,,,0.00,0,weatherlink.com 1.10,2013-10-19 22:33:00,
2013-10-19 18:48:00,53.6,49.0,29.63,SSE,148,7.0,-999.0,83,-99.99,,,0.00,0,weatherlink.com 1.10,2013-10-19 22:48:00,
2013-10-19 19:03:00,52.9,48.0,29.64,SE,143,7.0,-999.0,83,-99.99,,,0.00,0,weatherlink.com 1.10,2013-10-19 23:03:00,
2013-10-19 19:18:00,52.5,48.0,29.64,SE,130,6.0,-999.0,85,-99.99,,,0.00,0,weatherlink.com 1.10,2013-10-19 23:18:00,
2013-10-19 19:33:00,52.2,48.0,29.64,SE,136,4.0,-999.0,86,-99.99,,,0.00,0,weatherlink.com 1.10,2013-10-19 23:33:00,
2013-10-19 19:48:00,51.9,48.0,29.64,SE,130,1.0,-999.0,86,-99.99,,,0.00,0,weatherlink.com 1.10,2013-10-19 23:48:00,
2013-10-19 20:03:00,51.6,48.0,29.63,SE,139,0.0,-999.0,86,-99.99,,,0.00,0,weatherlink.com 1.10,2013-10-20 00:03:00,
2013-10-19 20:18:00,51.4,48.0,29.63,SE,134,2.0,-999.0,87,-99.99,,,0.00,0,weatherlink.com 1.10,2013-10-20 00:18:00,
2013-10-19 20:33:00,51.3,48.0,29.64,SE,141,0.0,-999.0,87,-99.99,,,0.00,0,weatherlink.com 1.10,2013-10-20 00:33:00,
2013-10-19 20:48:00,51.2,47.0,29.64,SSE,163,1.0,-999.0,86,-99.99,,,0.00,0,weatherlink.com 1.10,2013-10-20 00:48:00,
2013-10-19 21:03:00,51.0,47.0,29.64,SE,142,4.0,-999.0,87,-99.99,,,0.00,0,weatherlink.com 1.10,2013-10-20 01:03:00,
2013-10-19 21:18:00,51.0,47.0,29.64,SE,134,6.0,-999.0,86,-99.99,,,0.01,0,weatherlink.com 1.10,2013-10-20 01:18:00,
2013-10-19 21:33:00,49.2,45.0,29.68,West,276,9.0,-999.0,84,-99.99,,,0.01,0,weatherlink.com 1.10,2013-10-20 01:33:00,
2013-10-19 21:48:00,47.7,43.0,29.68,WSW,246,4.0,-999.0,85,-99.99,,,0.01,0,weatherlink.com 1.10,2013-10-20 01:48:00,
2013-10-19 22:03:00,47.2,43.0,29.68,West,263,0.0,-999.0,86,-99.99,,,0.01,0,weatherlink.com 1.10,2013-10-20 02:03:00,
2013-10-19 22:18:00,46.9,43.0,29.69,SW,236,1.0,-999.0,86,-99.99,,,0.01,0,weatherlink.com 1.10,2013-10-20 02:18:00,
2013-10-19 22:33:00,46.9,43.0,29.70,West,269,5.0,-999.0,86,-99.99,,,0.01,0,weatherlink.com 1.10,2013-10-20 02:33:00,
2013-10-19 22:48:00,46.9,43.0,29.71,WSW,254,4.0,-999.0,85,-99.99,,,0.01,0,weatherlink.com 1.10,2013-10-20 02:48:00,
2013-10-19 23:03:00,46.6,42.0,29.72,SW,226,7.0,-999.0,84,-99.99,,,0.01,0,weatherlink.com 1.10,2013-10-20 03:03:00,
2013-10-19 23:19:00,46.3,42.0,29.72,SW,230,1.0,-999.0,84,-99.99,,,0.01,0,weatherlink.com 1.10,2013-10-20 03:19:00,
2013-10-19 23:34:00,45.9,41.0,29.72,West,279,6.0,-999.0,84,-99.99,,,0.01,0,weatherlink.com 1.10,2013-10-20 03:34:00,
2013-10-19 23:49:00,45.7,41.0,29.72,SSW,196,1.0,-999.0,84,-99.99,,,0.01,0,weatherlink.com 1.10,2013-10-20 03:49:00,